Regional Weather Roundup
Issued by NWS Upton, NY

Home | Current Version | Previous Version | Text Only | Print | Product List | Glossary On
Versions: 1 2 3 4 5 6 7 8 9 10 11 12 13 14 15 16 17 18 19 20 21 22 23 24 25 26 27 28 29 30 31 32 33 34 35 36 37 38 39 40 41 42 43 44 45 46 47 48 49 50
936
ASUS41 KOKX 200508
RWROKX

REGIONAL WEATHER ROUNDUP
NATIONAL WEATHER SERVICE NEW YORK NY
1200 AM EST FRI JAN 20 2017

NOTE: "FAIR" INDICATES FEW OR NO CLOUDS BELOW 12,000 FEET WITH NO
SIGNIFICANT WEATHER AND/OR OBSTRUCTIONS TO VISIBILITY.

NYZ071-072-176-178-NJZ106-104-200600-
NEW YORK CITY METRO AREA

CITY           SKY/WX    TMP DP  RH WIND       PRES   REMARKS
Central Park   CLOUDY    43  33  68 CALM      30.04S
Wall St Helipt CLOUDY    43  36  75 NE7       30.04R
Bronx Bot Gard NOT AVBL
LaGuardia APRT CLOUDY    43  34  70 E8        30.02S
Kennedy INTL   CLOUDY    44  31  60 NE6       30.03S
Breezy Point     N/A     41 N/A N/A NW1         N/A
Newark/Liberty CLOUDY    41  33  73 CALM      30.03R
Teterboro      CLOUDY    43  34  70 N3        30.02S
$$

NYZ177-179-078>081-200600-
LONG ISLAND NEW YORK

CITY           SKY/WX    TMP DP  RH WIND       PRES   REMARKS
Jones Beach      N/A     39 N/A N/A NE5         N/A
Matinecock PT  NOT AVBL
Farmingdale    CLOUDY    42  33  70 NE7       30.02S
MacArthur/ISP  CLOUDY    41  32  70 N7        30.02R
Shirley        CLOUDY    40  32  73 N3        30.02S
Westhampton    CLOUDY    41  31  67 N6        30.02S
Southampton    NOT AVBL
Bridgehampton  NOT AVBL
East Hampton   CLOUDY    40  32  72 N3        30.01R
Montauk          N/A     43  34  70 VRB5      30.02R
$$

NYZ052-065-067-200600-
HUDSON VALLEY

CITY           SKY/WX    TMP DP  RH WIND       PRES   REMARKS
White Plains   CLOUDY    40  31  70 NE3       30.00S
Newburgh       CLOUDY    39  34  81 NE7       30.02  WCI  34
Montgomery     CLOUDY    39  32  76 NE5       30.00F
Poughkeepsie   CLOUDY    38  29  70 NE8       30.02S WCI  32
Albany         CLOUDY    35  32  88 CALM      30.03S
$$

NJZ001-105-106-008-010-013-015-019>022-104-200600-
NEW JERSEY

CITY           SKY/WX    TMP DP  RH WIND       PRES   REMARKS
Newark/Liberty CLOUDY    41  33  73 CALM      30.03R
Teterboro      CLOUDY    43  34  70 N3        30.02S
Caldwell       CLOUDY    35  33  92 CALM      30.03S
Somerville     CLOUDY    30  27  88 CALM      30.02S
Linden         MOCLDY    39  32  76 CALM      30.04R
Sussex         CLOUDY    32  32 100 CALM      30.01S
Andover          N/A     32  31  96 CALM      30.02R
Trenton        CLOUDY    33  31  92 NW5       30.03S WCI  29
Millville      CLOUDY    29  29 100 CALM      30.04S
Atlantic City  CLOUDY    32  29  88 CALM      30.03F
Wrightstown    CLOUDY    31  29  92 CALM      30.00F
Toms River     PTCLDY    28  27  96 CALM      30.04F
Belmar         CLOUDY    33  30  88 W3        30.04R
$$

PAZ047>061-062-071-200600-
EASTERN PENNSYLVANIA

CITY           SKY/WX    TMP DP  RH WIND       PRES   REMARKS
Philadelphia   PTCLDY    39  34  82 W3        30.05S
Allentown      CLOUDY    32  29  88 N3        30.03S
Scranton       CLOUDY    35  32  88 CALM      30.00R
$$

CTZ002-004>006-009-010-012-RIZ004-006-007-MAZ004-011-015-200600-
SOUTHERN NEW ENGLAND
 IN CT

CITY           SKY/WX    TMP DP  RH WIND       PRES   REMARKS
Bradley INTL   CLOUDY    39  31  72 CALM      30.02R
Hartford       CLOUDY    40  31  70 N5        30.02R
Danbury        CLOUDY    38  28  67 N9        30.01F WCI  31
Wtrbury/Oxford CLOUDY    37  28  70 NE9       30.00F WCI  31
Bridgeport     CLOUDY    42  30  62 N6        30.02F
Meriden        CLOUDY    42  30  62 N7        30.02S
New Haven      CLOUDY    41  30  65 N5        30.02S
Chester        CLOUDY    39  32  75 N3        30.00S
Groton         CLOUDY    42  32  67 N6        30.00S
Wilimantic     CLOUDY    39  34  82 CALM      30.01S

 IN RI

CITY           SKY/WX    TMP DP  RH WIND       PRES   REMARKS
Providence     CLOUDY    41  31  67 NE9       30.00F
Block Island   NOT AVBL
Westerly       CLOUDY    42  31  64 N3        30.01S
 IN MA

CITY           SKY/WX    TMP DP  RH WIND       PRES   REMARKS
Boston         PTCLDY    37  29  72 N8        30.00F WCI  31
Worcester      CLOUDY    34  28  79 N6        29.96F WCI  29
Westfield      CLOUDY    36  32  85 S3        30.01S
Provincetown   MOCLDY    40  34  79 N13       30.01F WCI  32
Nantucket      CLOUDY    40  34  79 N12       29.98F WCI  33
$$

ANZ330-335-338-340-345-350-353-355-200600-
COASTAL MARINE OBSERVATIONS


STATION/POSITION TIME  SKY/WX   TEMP    WIND        PRES    VSBY  WAVE
                                AIR SEA DIR/SP/G                  HT/PER
                 (UTC)          (F)     (DEG/KT/KT) (MB)    (MI)  (FT/S)
NY HARB ENTRANCE 0350            43 44  350/  6/  6 1016.3          4/11
20 S FIRE ISLAND 0450            44 45   30/ 10/ 12 1016.4          6/11
GREAT SOUTH BAY  NOT AVBL
23 SSW MONTAUK P 0350            44 48  340/ 14/ 16 1016.1          5/ 9
15 E BARNEGAT LI 0430               48                N/A           5/11
HUDSON CANYON    0350            47 51              1016.1          7/ 9
KINGS POINT      0442            42 39              1016.3
EXECUTION ROCKS  0445            41      50/  8/ 10   N/A
CENTRAL LI SOUND 0430            42      20/  8/ 10   N/A           1
EASTERN LI SOUND NOT AVBL
ROBBINS REEF     0442            41     310/  4/  5 1016.9
$$


>>>>>>>>>>>>>>>>>>>>>>>>>>>> KEY <<<<<<<<<<<<<<<<<<<<<<<<<<<
>                                                          <
>     SKY/WX - Sky Condition/Present Weather               <
>     TMP    - Temperature in Fahrenheit                   <
>     DP     - Dew Point in Fahrenheit                     <
>     RH     - Relative Humidity in Percent                <
>     WIND   - Direction (from) and Speed in MPH           <
>     PRES   - Mean Sea Level Pressure (inches of Hg)      <
>     WCI    - Wind Chill Index                            <
>     VSB    - VISIBILITY IN MILES                         <
>     HX     - HEAT INDEX                                  <
>     TC     - TEMPERATURE IN CELSIUS                      <
>     VRB    - VARIABLE WIND DIRECTION                     <
>                                                          <
>>>>>>>>>>>>>>>>>>>>>>>>>>>> KEY <<<<<<<<<<<<<<<<<<<<<<<<<<<




USA.gov is the U.S. government's official web portal to all federal, state and local government web resources and services.